| time (UTC) | temp F | wind direction | speed MPH | gust MPH | rain 1hr in | rain 24hr in | rain mn in | humidity % | barometer mb |
| 20260505095830 | 66 | 150 | 2.0 | 8.0 | 0.00 | 0.00 | 0.00 | 60 | 1011.9 |
| 20260505094830 | 66 | 160 | 4.0 | 9.0 | 0.00 | 0.00 | 0.00 | 60 | 1011.9 |
| 20260505093826 | 66 | 167 | 3.0 | 8.0 | 0.00 | 0.00 | 0.00 | 60 | 1012.0 |
| 20260505092823 | 66 | 99 | 3.0 | 9.0 | 0.00 | 0.00 | 0.00 | 63 | 1012.1 |
| 20260505091839 | 66 | 143 | 4.0 | 8.0 | 0.00 | 0.00 | 0.00 | 64 | 1012.2 |
| 20260505090813 | 66 | 132 | 4.0 | 8.0 | 0.00 | 0.00 | 0.00 | 64 | 1012.1 |
| 20260505085850 | 67 | 148 | 3.0 | 10.0 | 0.00 | 0.00 | 0.00 | 62 | 1012.3 |
| 20260505084828 | 67 | 137 | 4.0 | 12.0 | 0.00 | 0.00 | 0.00 | 60 | 1012.3 |
| 20260505083820 | 67 | 79 | 6.0 | 10.0 | 0.00 | 0.00 | 0.00 | 59 | 1012.4 |
| 20260505082837 | 68 | 170 | 5.0 | 14.0 | 0.00 | 0.00 | 0.00 | 57 | 1012.4 |
| 20260505081832 | 68 | 209 | 3.0 | 11.0 | 0.00 | 0.00 | 0.00 | 56 | 1012.7 |
| 20260505080829 | 68 | 143 | 5.0 | 12.0 | 0.00 | 0.00 | 0.00 | 53 | 1012.6 |
| 20260505075825 | 69 | 143 | 6.0 | 14.0 | 0.00 | 0.00 | 0.00 | 49 | 1012.8 |
| 20260505074826 | 70 | 160 | 6.0 | 12.0 | 0.00 | 0.00 | 0.00 | 46 | 1012.8 |
| 20260505073823 | 70 | 211 | 2.0 | 10.0 | 0.00 | 0.00 | 0.00 | 46 | 1012.6 |
| 20260505072820 | 70 | 174 | 4.0 | 9.0 | 0.00 | 0.00 | 0.00 | 46 | 1012.5 |
| 20260505071817 | 70 | 168 | 3.0 | 7.0 | 0.00 | 0.00 | 0.00 | 46 | 1012.6 |
| 20260505070831 | 70 | 159 | 4.0 | 10.0 | 0.00 | 0.00 | 0.00 | 45 | 1012.6 |
| 20260505065832 | 70 | 166 | 6.0 | 12.0 | 0.00 | 0.00 | 0.00 | 44 | 1012.6 |
| 20260505064827 | 71 | 168 | 5.0 | 12.0 | 0.00 | 0.00 | 0.00 | 42 | 1012.6 |
| 20260505063823 | 71 | 156 | 5.0 | 11.0 | 0.00 | 0.00 | 0.00 | 39 | 1012.4 |
| 20260505062820 | 71 | 156 | 6.0 | 11.0 | 0.00 | 0.00 | 0.00 | 38 | 1012.1 |
| 20260505061816 | 72 | 75 | 3.0 | 9.0 | 0.00 | 0.00 | 0.00 | 35 | 1011.9 |
| 20260505060817 | 72 | 193 | 5.0 | 13.0 | 0.00 | 0.00 | 0.00 | 34 | 1012.0 |
| 20260505055854 | 72 | 165 | 5.0 | 15.0 | 0.00 | 0.00 | 0.00 | 31 | 1011.9 |
| 20260505054827 | 73 | 175 | 3.0 | 9.0 | 0.00 | 0.00 | 0.00 | 32 | 1011.8 |
| 20260505053822 | 73 | 149 | 4.0 | 10.0 | 0.00 | 0.00 | 0.00 | 32 | 1012.2 |
| 20260505052818 | 73 | 160 | 4.0 | 9.0 | 0.00 | 0.00 | 0.00 | 33 | 1012.4 |
| 20260505051818 | 73 | 98 | 1.0 | 8.0 | 0.00 | 0.00 | 0.00 | 33 | 1012.5 |
| 20260505050835 | 73 | 136 | 2.0 | 8.0 | 0.00 | 0.00 | 0.00 | 32 | 1012.6 |
| 20260505040813 | 75 | 215 | 1.0 | 8.0 | 0.00 | 0.00 | 0.00 | 42 | 1012.2 |
| 20260505035826 | 75 | 242 | 1.0 | 5.0 | 0.00 | 0.00 | 0.00 | 42 | 1012.2 |
| 20260505034818 | 75 | 204 | 1.0 | 2.0 | 0.00 | 0.00 | 0.00 | 43 | 1012.0 |
| 20260505033815 | 75 | 219 | 1.0 | 2.0 | 0.00 | 0.00 | 0.00 | 43 | 1011.8 |
| 20260505032829 | 75 | 241 | 1.0 | 4.0 | 0.00 | 0.00 | 0.00 | 42 | 1011.7 |
| 20260505031824 | 75 | 235 | 1.0 | 3.0 | 0.00 | 0.00 | 0.00 | 42 | 1011.3 |
| 20260505030817 | 75 | 234 | 1.0 | 5.0 | 0.00 | 0.00 | 0.00 | 42 | 1011.2 |
| 20260505025830 | 75 | 237 | 2.0 | 7.0 | 0.00 | 0.00 | 0.00 | 41 | 1011.2 |
| 20260505024827 | 76 | 230 | 3.0 | 7.0 | 0.00 | 0.00 | 0.00 | 40 | 1011.3 |
| 20260505023820 | 76 | 226 | 1.0 | 3.0 | 0.00 | 0.00 | 0.00 | 39 | 1011.2 |
| 20260505022833 | 76 | 231 | 1.0 | 3.0 | 0.00 | 0.00 | 0.00 | 39 | 1011.2 |
| 20260505021826 | 77 | 223 | 2.0 | 3.0 | 0.00 | 0.00 | 0.00 | 38 | 1011.1 |
| 20260505020840 | 77 | 204 | 0.0 | 6.0 | 0.00 | 0.00 | 0.00 | 36 | 1011.2 |
| 20260505015813 | 77 | 182 | 1.0 | 5.0 | 0.00 | 0.00 | 0.00 | 36 | 1010.9 |
| 20260505014831 | 77 | 177 | 2.0 | 4.0 | 0.00 | 0.00 | 0.00 | 35 | 1010.9 |
| 20260505013825 | 77 | 214 | 1.0 | 2.0 | 0.00 | 0.00 | 0.00 | 38 | 1010.7 |
| 20260505012819 | 77 | 276 | 0.0 | 2.0 | 0.00 | 0.00 | 0.00 | 39 | 1010.6 |
| 20260505011812 | 77 | 218 | 0.0 | 6.0 | 0.00 | 0.00 | 0.00 | 38 | 1010.8 |
| 20260505010813 | 77 | 225 | 2.0 | 7.0 | 0.00 | 0.00 | 0.00 | 38 | 1010.8 |
| 20260505005848 | 77 | 243 | 2.0 | 8.0 | 0.00 | 0.00 | 0.00 | 38 | 1010.8 |
| 20260505004821 | 78 | 222 | 1.0 | 3.0 | 0.00 | 0.00 | 0.00 | 38 | 1010.9 |
| 20260505003816 | 78 | 247 | 0.0 | 2.0 | 0.00 | 0.00 | 0.00 | 38 | 1010.8 |
| 20260505002831 | 78 | 225 | 1.0 | 3.0 | 0.00 | 0.00 | 0.00 | 38 | 1010.9 |
| 20260505001824 | 77 | 218 | 1.0 | 6.0 | 0.00 | 0.00 | 0.00 | 38 | 1011.0 |
| 20260505000821 | 77 | 208 | 1.0 | 3.0 | 0.00 | 0.00 | 0.00 | 39 | 1011.1 |
| 20260504235813 | 77 | 224 | 1.0 | 5.0 | 0.00 | 0.00 | 0.00 | 39 | 1011.3 |
| 20260504234827 | 78 | 248 | 3.0 | 7.0 | 0.00 | 0.00 | 0.00 | 39 | 1011.4 |
| 20260504233820 | 78 | 208 | 0.0 | 3.0 | 0.00 | 0.00 | 0.00 | 39 | 1011.4 |
| 20260504232819 | 77 | 314 | 2.0 | 5.0 | 0.00 | 0.00 | 0.00 | 40 | 1011.3 |
| 20260504231812 | 77 | 354 | 0.0 | 7.0 | 0.00 | 0.00 | 0.00 | 40 | 1011.2 |
| 20260504230827 | 77 | 197 | 1.0 | 4.0 | 0.00 | 0.00 | 0.00 | 40 | 1011.2 |
| 20260504225821 | 78 | 231 | 2.0 | 5.0 | 0.00 | 0.00 | 0.00 | 39 | 1011.3 |
| 20260504224812 | 78 | 328 | 1.0 | 5.0 | 0.00 | 0.00 | 0.00 | 40 | 1011.4 |
| 20260504223831 | 78 | 12 | 2.0 | 6.0 | 0.00 | 0.00 | 0.00 | 39 | 1011.4 |
| 20260504222826 | 78 | 287 | 4.0 | 12.0 | 0.00 | 0.00 | 0.00 | 39 | 1011.7 |
| 20260504221820 | 78 | 280 | 6.0 | 12.0 | 0.00 | 0.00 | 0.00 | 39 | 1011.7 |
| 20260504220831 | 78 | 243 | 3.0 | 8.0 | 0.00 | 0.00 | 0.00 | 40 | 1011.8 |
| 20260504215826 | 78 | 318 | 2.0 | 8.0 | 0.00 | 0.00 | 0.00 | 39 | 1011.8 |
| 20260504214822 | 77 | 4 | 0.0 | 8.0 | 0.00 | 0.00 | 0.00 | 40 | 1011.7 |
| 20260504213816 | 77 | 236 | 1.0 | 8.0 | 0.00 | 0.00 | 0.00 | 40 | 1012.1 |
| 20260504212830 | 78 | 239 | 1.0 | 8.0 | 0.00 | 0.00 | 0.00 | 40 | 1012.6 |
| 20260504211823 | 77 | 324 | 4.0 | 14.0 | 0.00 | 0.00 | 0.00 | 40 | 1012.7 |
| 20260504210815 | 78 | 236 | 4.0 | 12.0 | 0.00 | 0.00 | 0.00 | 39 | 1012.7 |
| 20260504205812 | 78 | 290 | 7.0 | 14.0 | 0.00 | 0.00 | 0.00 | 39 | 1012.7 |
| 20260504204825 | 79 | 234 | 5.0 | 11.0 | 0.00 | 0.00 | 0.00 | 36 | 1012.7 |
| 20260504203818 | 80 | 236 | 2.0 | 9.0 | 0.00 | 0.00 | 0.00 | 37 | 1012.7 |
| 20260504202828 | 79 | 239 | 3.0 | 9.0 | 0.00 | 0.00 | 0.00 | 37 | 1012.5 |
| 20260504201821 | 78 | 262 | 4.0 | 8.0 | 0.00 | 0.00 | 0.00 | 40 | 1012.6 |
| 20260504200821 | 78 | 218 | 3.0 | 10.0 | 0.00 | 0.00 | 0.00 | 40 | 1012.6 |
| 20260504195814 | 77 | 231 | 5.0 | 9.0 | 0.00 | 0.00 | 0.00 | 40 | 1012.7 |
| 20260504194827 | 77 | 89 | 0.0 | 7.0 | 0.00 | 0.00 | 0.00 | 40 | 1012.6 |
| 20260504193820 | 78 | 224 | 3.0 | 8.0 | 0.00 | 0.00 | 0.00 | 40 | 1012.8 |
| 20260504192813 | 78 | 239 | 2.0 | 9.0 | 0.00 | 0.00 | 0.00 | 38 | 1013.1 |
| 20260504191830 | 78 | 218 | 2.0 | 10.0 | 0.00 | 0.00 | 0.00 | 40 | 1013.1 |
| 20260504190822 | 78 | 237 | 1.0 | 6.0 | 0.00 | 0.00 | 0.00 | 40 | 1012.9 |
| 20260504185819 | 77 | 217 | 1.0 | 4.0 | 0.00 | 0.00 | 0.00 | 41 | 1012.7 |
| 20260504184829 | 77 | 235 | 2.0 | 7.0 | 0.00 | 0.00 | 0.00 | 43 | 1012.7 |
| 20260504183823 | 76 | 229 | 2.0 | 8.0 | 0.00 | 0.00 | 0.00 | 42 | 1012.8 |
| 20260504182823 | 76 | 237 | 6.0 | 12.0 | 0.00 | 0.00 | 0.00 | 41 | 1013.2 |
| 20260504181818 | 76 | 235 | 5.0 | 14.0 | 0.00 | 0.00 | 0.00 | 36 | 1013.5 |
| 20260504180831 | 76 | 222 | 4.0 | 11.0 | 0.00 | 0.00 | 0.00 | 35 | 1013.4 |
| 20260504175844 | 76 | 195 | 3.0 | 9.0 | 0.00 | 0.00 | 0.00 | 35 | 1013.0 |
| 20260504174818 | 77 | 222 | 3.0 | 7.0 | 0.00 | 0.00 | 0.00 | 34 | 1012.6 |
| 20260504173828 | 76 | 201 | 3.0 | 9.0 | 0.00 | 0.00 | 0.00 | 37 | 1012.9 |
| 20260504172822 | 76 | 201 | 3.0 | 10.0 | 0.00 | 0.00 | 0.00 | 36 | 1012.7 |
| 20260504171813 | 76 | 162 | 4.0 | 10.0 | 0.00 | 0.00 | 0.00 | 36 | 1013.0 |
| 20260504170827 | 76 | 202 | 3.0 | 8.0 | 0.00 | 0.00 | 0.00 | 35 | 1013.1 |
| 20260504150813 | 74 | 219 | 3.0 | 11.0 | 0.00 | 0.00 | 0.00 | 44 | 1012.7 |
| 20260504140823 | 73 | 152 | 2.0 | 7.0 | 0.00 | 0.00 | 0.00 | 46 | 1012.0 |
| 20260504130816 | 72 | 212 | 2.0 | 4.0 | 0.00 | 0.00 | 0.00 | 46 | 1011.9 |